Location: Memmingen
(47.9830°N, 10.1733°E)
Time: 03:45:35
(UTC+01:00)

ISS - Pass Details

Date: 08 January 2018
Orbit: 402 x 407 km, 51.6° (Epoch: 21 January)

Event Time Altitude Azimuth Distance (km) Brightness Sun altitude
Exits shadow 05:05:54 13° 65° (ENE) 1,303 -0.6 -29.6°
Drops below altitude 10° 05:06:20 10° 68° (ENE) 1,469 -0.2 -29.5°
Sets 05:08:29 0° 75° (ENE) 2,332 1.1 -29.1°
